Neandertal, South Africa

1:44 AM SAST on January 22, 2017 (GMT +0200)
Polokwane

Weather History for FAPP - December, 2012

Change the Weather History Date:

Thursday, December 6, 2012

  Actual Average Record
Temperature  
Mean Temperature 66 °F -  
Max Temperature 73 °F - - ()
Min Temperature 59 °F - - ()
Cooling Degree Days 1    
Growing Degree Days 16 (Base 50)    
Moisture  
Dew Point 53 °F    
Average Humidity 70    
Maximum Humidity 82    
Minimum Humidity 47    
Precipitation  
Precipitation 0.00 in - - ()
Sea Level Pressure  
Sea Level Pressure 30.14 in    
Wind  
Wind Speed 6 mph ()    
Max Wind Speed 10 mph    
Max Gust Speed -    
Visibility 6.2 miles    
Events Rain    
T = Trace of Precipitation, MM = Missing Value Source: Averaged Metar Reports

Daily Weather History Graph

Daily Weather History Graph

Search for Another Location

Airport or City:

Trip Planner

Search our weather history database for the weather conditions in past years. The results will help you decide how hot, cold, wet, or windy it might be!

Date:

Astronomy

Dec. 06, 2012 Rise Set
Actual Time 5:06 AM SAST 6:39 PM SAST
Civil Twilight 4:41 AM SAST 7:05 PM SAST
Nautical Twilight 4:11 AM SAST 7:35 PM SAST
Astronomical Twilight 3:40 AM SAST 8:06 PM SAST
Moon No Moon Rise 11:39 AM SAST (12/6)
Length of Visible Light 14h 23m
Length of Day
13h 32m
Waning Gibbous, 52% of the Moon is Illuminated
Dec 6
Waning Gibbous
Dec 6
Last Quarter
Dec 13
New
Dec 20
First Quarter
Dec 28
Full

Hourly Weather History & Observations

Time (SAST) Temp. Dew Point Humidity Pressure Visibility Wind Dir Wind Speed Gust Speed Precip Events Conditions
12:00 AM 60.8 °F 51.8 °F 72% 30.09 in - East 9.2 mph - N/A   Unknown
1:00 AM 59.0 °F 53.6 °F 82% 30.09 in - ENE 3.5 mph - N/A   Unknown
2:00 AM 59.0 °F 53.6 °F 82% 30.12 in - East 5.8 mph - N/A   Unknown
3:00 AM 59.0 °F 53.6 °F 82% 30.12 in - East 5.8 mph - N/A   Unknown
4:00 AM 60.8 °F 51.8 °F 72% 30.15 in - ENE 6.9 mph - N/A   Unknown
5:00 AM 59.0 °F 51.8 °F 77% 30.15 in 6.2 mi East 3.5 mph - N/A   Scattered Clouds
6:00 AM 60.8 °F 51.8 °F 72% 30.18 in 6.2 mi South 3.5 mph - N/A   Scattered Clouds
7:00 AM 62.6 °F 53.6 °F 72% 30.18 in 6.2 mi ESE 6.9 mph - N/A   Overcast
8:00 AM 64.4 °F 51.8 °F 64% 30.21 in 6.2 mi SE 6.9 mph - N/A   Mostly Cloudy
9:00 AM 64.4 °F 53.6 °F 68% 30.21 in 6.2 mi SSW 6.9 mph - N/A   Overcast
10:00 AM 62.6 °F 53.6 °F 72% 30.21 in 6.2 mi SW 10.4 mph - N/A   Mostly Cloudy
11:00 AM 62.6 °F 53.6 °F 72% 30.21 in 6.2 mi SSW 3.5 mph - N/A   Partly Cloudy
12:00 PM 64.4 °F 53.6 °F 68% 30.15 in 6.2 mi East 6.9 mph - N/A Rain Light Rain
1:00 PM 64.4 °F 55.4 °F 73% 30.15 in 6.2 mi NNE 10.4 mph - N/A Rain Light Rain
2:00 PM 68.0 °F 53.6 °F 60% 30.09 in 6.2 mi NE 5.8 mph - N/A   Scattered Clouds
3:00 PM 71.6 °F 53.6 °F 53% 30.09 in 6.2 mi ENE 5.8 mph - N/A   Partly Cloudy
4:00 PM 73.4 °F 51.8 °F 47% 30.09 in 6.2 mi SW 3.5 mph - N/A   Partly Cloudy
5:00 PM 71.6 °F 55.4 °F 57% 30.09 in 6.2 mi NE 10.4 mph - N/A   Partly Cloudy
6:00 PM 69.8 °F 55.4 °F 60% 30.09 in 6.2 mi NNE 9.2 mph - N/A   Scattered Clouds
7:00 PM 66.2 °F 53.6 °F 64% 30.12 in 6.2 mi NE 10.4 mph - N/A   Partly Cloudy
8:00 PM 62.6 °F 53.6 °F 72% 30.12 in 6.2 mi NE 9.2 mph - N/A   Partly Cloudy
9:00 PM 60.8 °F 53.6 °F 77% 30.15 in - NE 5.8 mph - N/A   Unknown
10:00 PM 60.8 °F 53.6 °F 77% 30.15 in - NE 3.5 mph - N/A   Unknown
11:00 PM 60.8 °F 53.6 °F 77% 30.15 in - NE 4.6 mph - N/A   Unknown